Temperature
11 11 10 10 10 10 10 10 10 10 9 9 10 10 10 10 10 10 10 10 10 10 10 10 10 10 10 10 10 10 10 9 9 9 9 9 9 9 9 9 9 9 9
10 10 10 10 10 10 10 9 9 9 9 9 10 10 10 9 9 9 9 9 9 10 10 10 10 10 10 10 10 10 10 9 9 9 8 8 8 8 8 8 8 8 8
10 10 10 10 10 9 9 9 9 9 9 9 9 9 9 9 9 9 9 9 9 9 9 9 10 9 9 9 9 9 9 9 9 9 9 8 8 7 7 8 8 8 8
10 10 10 9 9 9 9 9 9 9 9 8 9 9 9 9 9 9 9 9 9 9 9 9 9 9 9 9 9 9 9 9 9 8 8 8 8 8 7 7 7 7 7
10 10 10 10 9 9 9 9 9 8 8 8 8 8 8 8 8 8 8 8 9 9 9 9 9 9 9 9 9 9 9 8 9 9 8 8 8 8 8 7 7 7 7
10 9 9 9 9 9 9 9 8 8 8 8 8 8 8 8 8 8 8 8 8 8 8 8 8 8 8 8 8 8 8 8 8 8 8 8 8 8 8 7 7 7 6
9 9 9 9 9 9 9 8 8 8 8 8 8 8 8 8 8 8 8 8 8 8 8 8 8 8 8 8 8 8 8 8 8 8 8 8 8 7 7 7 7 6 6
9 9 8 8 8 9 8 8 8 8 8 8 8 7 7 7 7 7 8 8 8 8 8 8 8 8 8 8 8 7 7 7 7 7 7 7 7 7 7 6 6 6 5
8 8 8 8 8 8 8 8 8 8 7 7 7 7 7 7 7 7 7 7 7 7 7 7 7 7 7 7 7 7 7 7 7 7 7 6 6 6 6 6 6 6 5
8 8 8 8 8 8 8 8 7 7 7 7 7 7 7 7 7 7 7 7 7 7 7 7 7 7 7 7 7 7 7 7 6 6 6 6 6 6 6 5 5 5 5
7 7 7 7 7 7 7 7 7 7 7 6 6 6 7 7 7 7 7 7 7 7 7 7 7 7 7 6 6 6 6 6 6 6 6 6 5 5 5 5 5 5 5
7 7 7 7 7 7 7 7 6 6 6 6 6 6 6 6 6 6 6 6 6 6 6 6 6 6 6 6 6 6 6 6 6 6 5 5 5 5 5 5 4 4 4
6 6 7 7 6 6 6 6 6 6 6 6 6 6 6 6 6 5 6 6 6 6 6 5 6 6 6 6 5 5 5 5 5 5 5 5 5 4 4 4 4 4 4
6 6 6 6 6 6 6 6 6 6 5 5 5 5 5 5 5 5 5 5 5 5 5 5 5 5 5 5 5 5 5 5 5 5 5 4 4 4 4 4 4 3 3
6 5 5 5 5 5 5 5 5 5 5 5 5 5 5 5 5 5 5 5 5 5 5 5 5 5 5 5 5 5 4 4 4 4 4 4 4 4 3 3 3 3 3
5 5 5 5 5 5 5 5 5 5 5 4 4 4 4 4 4 4 4 4 4 4 4 4 4 4 4 4 4 4 4 4 4 4 3 3 3 3 3 3 3 2 2
5 5 4 4 4 4 4 4 4 4 4 4 4 4 4 4 4 4 4 4 4 4 4 4 4 4 4 4 4 3 3 3 3 3 3 3 3 3 2 2 2 2 2
4 4 4 4 4 4 4 4 4 4 4 3 3 3 3 3 3 4 4 3 3 4 4 3 3 3 3 3 3 3 3 3 3 2 2 2 2 2 2 2 2 1 1
4 4 4 4 4 4 4 3 3 3 3 3 3 3 3 3 3 3 3 3 3 3 3 3 3 3 3 3 2 2 2 2 2 2 2 2 2 1 1 1 1 1 1
4 4 4 3 4 3 3 3 3 3 3 3 3 3 3 2 2 2 2 2 2 2 2 2 2 2 2 2 2 2 2 2 1 1 1 1 1 1 1 0 0 0 0
3 3 3 3 3 3 3 3 2 2 2 2 2 2 2 2 2 2 2 2 2 2 2 1 1 1 1 1 1 1 1 1 1 1 1 1 0 0 0 -0 -0 -0 -0
3 3 3 2 2 2 2 2 2 2 2 2 2 2 1 1 1 1 1 1 1 1 1 1 1 1 1 1 1 0 0 0 0 0 0 -0 -0 -0 -0 -1 -1 -1 -1
2 2 2 2 2 2 1 1 1 1 1 1 1 1 1 1 1 1 0 0 0 0 0 0 0 0 0 -0 -0 -0 -0 -0 -0 -1 -1 -1 -1 -1 -1 -1 -2 -2 -2
1 1 1 1 1 1 1 1 1 1 1 1 0 0 0 0 0 0 -0 -0 -0 -0 -0 -1 -1 -1 -1 -1 -1 -1 -1 -1 -1 -1 -1 -1 -2 -2 -2 -2 -2 -2 -3
-0 -0 -0 -0 -0 -0 0 0 0 0 0 -0 -0 -0 -0 -0 -0 -0 -1 -1 -1 -1 -1 -1 -1 -1 -1 -1 -1 -1 -1 -1 -1 -2 -2 -2 -2 -2 -2 -3 -3 -3 -3
-1 -1 -1 -1 -1 -1 -1 -1 -1 -1 -1 -1 -1 -1 -1 -1 -1 -1 -1 -1 -1 -2 -2 -2 -2 -2 -2 -2 -2 -2 -2 -2 -2 -2 -3 -3 -3 -3 -3 -3 -4 -4 -4
Wind_Speed
5 4 4 4 4 5 5 5 5 4 3 2 2 2 2 1 1 2 4 5 6 8 7 5 5 5 4 5 6 4 5 3 3 4 3 3 3 2 2 3 4 4 6
3 3 3 3 5 6 6 6 6 6 5 3 3 2 2 1 1 2 3 4 5 6 7 5 4 4 4 5 5 5 4 3 3 3 3 2 1 2 1 1 3 3 4
4 4 4 5 5 6 6 6 6 5 4 3 2 2 2 2 1 1 2 3 5 5 5 6 5 4 4 5 5 6 6 4 2 2 3 4 4 1 1 0 1 3 2
3 4 4 5 6 7 6 6 6 5 4 4 5 5 4 3 3 2 2 2 4 5 5 6 6 5 4 5 5 5 4 6 4 2 1 2 3 4 2 1 1 2 3
3 3 4 6 6 6 6 6 6 5 5 5 6 6 4 2 1 1 2 2 2 4 5 6 5 4 4 4 5 5 5 4 5 4 3 2 1 2 3 3 1 1 1
2 2 3 3 3 4 4 5 6 6 5 6 5 6 6 4 4 3 3 2 2 2 3 5 4 4 4 4 5 5 5 4 4 4 3 4 3 3 3 3 3 2 1
2 1 1 2 2 4 5 5 6 6 6 6 6 6 6 6 7 6 6 5 3 3 4 3 4 4 4 4 4 4 5 5 5 5 3 3 3 3 3 4 3 2 1
2 2 2 2 3 4 5 6 6 6 6 6 6 5 5 5 4 5 5 5 4 4 4 4 4 4 5 5 5 3 4 4 4 5 4 3 3 3 3 4 4 2 1
3 3 2 2 2 3 5 6 6 5 5 6 5 5 5 4 4 4 4 4 4 3 4 5 5 5 5 5 5 4 4 4 4 4 4 3 3 3 3 3 4 5 3
4 3 2 2 2 3 4 4 5 5 4 5 5 4 5 5 4 4 5 5 5 5 5 5 5 5 5 5 5 4 4 4 4 4 4 4 3 3 3 4 3 3 4
4 4 3 2 1 1 1 2 3 3 3 3 3 3 4 4 4 4 5 5 5 5 6 6 6 6 6 6 6 5 6 6 5 5 5 5 4 4 4 4 3 3 3
4 3 3 2 2 1 1 0 1 2 3 3 3 3 3 3 3 4 4 4 5 5 5 6 6 6 6 6 7 7 6 7 6 6 6 6 5 5 4 4 4 4 4
4 3 3 3 2 2 1 1 1 1 2 2 3 2 2 3 3 4 3 4 4 4 5 5 6 6 6 7 7 7 6 6 7 7 7 7 7 6 5 5 4 4 3
3 3 3 3 3 2 2 1 1 1 0 1 2 2 2 2 3 3 3 3 4 4 5 5 5 5 5 6 6 6 6 6 6 6 6 7 8 8 7 6 5 4 4
4 3 4 4 3 3 2 2 2 1 0 0 1 1 1 1 1 2 2 2 3 4 4 4 4 4 4 5 6 6 6 6 5 5 5 6 8 10 8 6 6 6 5
3 4 4 4 4 3 3 2 2 1 0 0 1 1 1 0 1 1 2 2 2 3 3 3 4 4 4 6 9 7 6 6 6 6 5 5 6 8 10 10 9 9 7
3 4 4 4 4 3 3 2 2 1 0 0 1 1 1 1 1 1 1 2 3 2 3 3 4 4 5 7 8 9 6 5 6 6 5 4 5 6 5 7 8 9 10
3 4 4 4 4 3 3 2 1 1 0 1 1 1 1 1 1 0 1 2 2 2 3 3 4 3 4 6 7 8 5 5 5 5 6 6 5 5 6 5 5 5 6
3 3 3 3 3 3 2 1 1 1 1 1 1 1 1 1 1 1 1 1 1 2 2 3 3 3 4 6 6 6 4 4 4 5 5 6 6 8 8 6 5 5 5
2 3 3 3 3 3 2 1 2 1 2 2 2 2 1 1 2 2 1 1 1 1 1 1 2 3 3 5 6 6 3 4 3 3 4 7 8 9 9 6 6 7 6
3 3 3 3 3 4 2 2 2 3 3 2 2 2 1 2 1 1 1 0 0 1 1 1 1 1 2 4 5 6 3 4 4 4 4 5 8 9 9 8 6 8 6
3 3 3 4 4 4 3 3 3 3 3 1 1 1 1 1 1 0 0 0 1 1 1 1 1 1 2 2 4 5 5 5 4 4 4 5 8 8 8 7 7 8 6
3 3 3 4 5 4 3 3 4 4 3 2 2 2 1 1 1 1 1 1 1 1 1 1 1 2 2 2 4 5 6 6 4 3 5 6 7 7 6 7 7 6 3
3 3 3 4 5 5 5 4 4 3 2 2 2 2 1 1 1 0 1 1 2 2 2 2 2 2 2 2 2 3 3 4 3 3 4 6 6 4 4 4 4 4 4
3 3 3 4 5 5 6 5 4 3 3 2 2 2 2 1 1 1 1 2 2 3 3 3 3 3 4 5 6 4 3 3 3 2 1 1 2 2 3 3 3 3 3
3 3 4 4 5 5 6 5 5 3 2 2 2 2 1 1 1 1 3 3 3 4 4 4 4 4 6 6 6 6 6 6 6 3 2 3 3 4 4 4 3 3 4
Wind_Direction
249 235 219 194 172 169 171 173 166 169 158 155 153 153 160 147 144 160 151 154 156 156 149 152 155 153 152 157 148 132 120 111 117 103 83 38 45 90 127 134 130 130 133
279 241 211 187 181 180 180 180 182 180 178 183 179 168 156 157 172 159 146 156 159 161 159 154 160 158 152 156 155 142 133 134 140 131 127 117 16 7 80 149 158 150 133
240 235 214 199 192 191 188 190 190 185 183 170 140 105 78 64 89 162 166 167 168 168 166 164 159 162 162 168 169 158 147 156 163 145 147 153 188 187 349 247 171 164 157
240 228 220 206 201 202 197 192 187 185 182 167 165 163 170 186 212 196 182 172 171 171 174 168 169 172 170 172 178 171 158 157 169 165 130 137 146 153 161 311 265 184 177
254 232 226 218 213 202 195 192 184 187 187 186 184 181 187 190 157 149 166 176 178 176 177 170 168 169 171 174 174 168 165 167 169 169 157 129 94 124 149 184 223 248 223
301 272 242 227 215 199 189 185 186 193 194 194 194 194 191 180 169 179 191 195 200 201 185 171 172 172 172 178 178 172 171 174 168 170 167 159 162 173 157 167 185 201 244
313 301 279 251 223 202 191 188 192 200 200 198 201 204 201 192 194 195 196 195 199 210 204 186 182 177 178 177 169 170 175 172 168 174 180 177 174 159 152 151 162 177 242
325 314 271 254 237 216 198 192 197 202 199 202 208 210 206 201 204 204 199 200 205 205 193 191 188 181 177 174 165 170 175 172 175 179 176 176 178 157 155 158 152 151 243
311 296 289 271 249 224 208 200 201 202 201 204 205 204 204 203 200 197 196 197 195 192 183 185 184 183 179 177 168 176 180 174 181 180 177 177 172 159 159 155 157 160 186
318 309 292 274 258 230 213 198 200 202 203 203 206 212 208 205 196 189 197 198 195 188 182 186 184 184 183 178 176 177 179 175 182 179 177 184 172 164 166 166 170 169 173
315 312 304 294 297 316 208 204 205 196 194 201 205 208 209 205 193 198 203 200 196 189 187 188 187 186 185 182 182 187 178 184 188 184 185 193 177 171 172 169 170 172 165
319 318 324 339 356 356 353 222 211 206 205 202 203 208 205 198 198 206 206 194 193 194 193 190 189 190 189 187 190 194 189 189 195 196 191 195 185 182 179 177 180 179 176
332 343 352 347 336 335 334 298 258 229 213 195 193 204 203 204 209 211 205 193 192 193 192 190 193 195 193 192 198 196 195 196 200 199 198 197 185 192 189 183 186 184 181
333 343 342 332 329 337 334 316 309 285 202 171 177 196 208 212 215 207 198 191 194 195 195 196 196 197 196 196 195 193 196 199 203 203 202 200 195 198 192 190 191 184 180
346 342 337 333 334 338 338 328 317 315 40 146 190 225 230 205 195 197 193 181 191 202 200 194 191 194 197 201 193 192 194 195 201 202 205 207 202 201 197 195 191 187 189
335 338 339 337 330 323 319 321 321 311 303 234 257 265 262 201 192 206 190 181 188 194 192 197 193 200 214 210 201 193 191 192 197 201 207 212 208 208 209 208 203 197 196
313 320 321 315 307 304 301 288 288 311 295 263 282 265 232 243 240 212 191 195 195 191 197 203 198 209 217 208 206 200 192 193 200 199 200 213 211 208 200 213 216 218 222
300 305 309 313 310 306 310 304 303 300 283 294 292 272 253 261 269 215 221 224 219 204 208 209 204 206 219 210 210 204 197 199 202 202 203 205 208 206 199 198 209 221 226
287 291 296 297 311 318 314 330 336 321 296 291 287 283 270 253 241 244 255 264 229 221 225 214 205 208 226 218 213 202 187 197 204 206 204 204 209 217 211 200 207 225 239
328 328 331 340 340 328 330 358 328 318 291 282 278 288 274 238 235 241 253 287 235 226 212 221 219 213 224 223 215 201 185 196 205 211 214 217 219 223 220 209 206 223 237
354 355 356 350 334 332 346 344 319 296 293 291 289 292 284 255 243 246 256 229 195 161 185 217 259 244 237 236 232 217 198 202 204 212 219 221 224 229 229 223 216 228 231
5 0 355 344 342 348 358 344 321 308 310 298 292 288 287 284 284 192 288 209 171 178 202 215 277 290 275 255 245 230 225 218 208 219 221 223 228 232 235 233 232 237 235
356 353 355 352 352 354 358 343 324 330 335 336 322 310 300 293 227 195 199 210 194 205 228 224 256 288 294 273 257 242 235 233 231 229 231 237 239 237 238 240 241 237 222
357 357 3 360 349 347 348 338 332 340 350 347 330 329 336 344 354 327 210 208 212 217 227 233 245 264 274 271 262 251 245 239 244 246 246 249 251 244 236 241 242 228 216
355 0 357 350 340 342 344 343 345 356 2 356 353 349 346 352 349 337 296 251 242 231 231 235 233 236 252 256 254 251 235 220 220 217 226 222 234 235 232 231 233 225 220
4 2 354 346 340 343 344 346 349 353 0 356 352 345 347 352 348 332 330 321 291 273 259 251 250 257 260 266 261 261 252 239 223 216 217 230 233 237 236 234 237 231 228
Height
1487 1487 1486 1486 1486 1487 1488 1488 1488 1489 1490 1490 1491 1492 1494 1496 1497 1498 1500 1501 1503 1505 1507 1509 1510 1511 1513 1515 1517 1519 1520 1522 1524 1525 1527 1529 1531 1533 1534 1535 1536 1537 1539
1485 1484 1484 1484 1484 1484 1485 1485 1486 1486 1487 1488 1489 1491 1493 1494 1495 1497 1498 1499 1501 1503 1505 1507 1508 1509 1511 1513 1514 1516 1518 1520 1522 1524 1525 1527 1530 1530 1532 1533 1534 1535 1536
1483 1482 1482 1482 1482 1482 1482 1483 1483 1484 1485 1486 1487 1489 1490 1491 1492 1493 1495 1497 1499 1501 1503 1504 1506 1507 1509 1511 1512 1514 1516 1517 1519 1521 1523 1524 1525 1527 1529 1530 1532 1533 1534
1481 1480 1480 1479 1479 1479 1480 1481 1481 1482 1482 1483 1484 1485 1486 1487 1489 1491 1493 1495 1496 1498 1500 1502 1503 1505 1506 1508 1510 1512 1513 1515 1516 1518 1520 1522 1522 1524 1525 1528 1529 1530 1531
1479 1478 1478 1477 1477 1477 1478 1478 1479 1480 1480 1481 1482 1483 1484 1485 1487 1489 1490 1492 1494 1496 1497 1499 1500 1502 1504 1505 1507 1509 1511 1512 1514 1515 1517 1518 1520 1520 1522 1523 1526 1527 1528
1477 1476 1476 1476 1476 1476 1476 1476 1476 1477 1478 1478 1479 1480 1481 1482 1484 1486 1487 1489 1490 1492 1494 1496 1498 1499 1501 1503 1505 1506 1508 1509 1511 1513 1514 1515 1516 1517 1518 1519 1521 1523 1525
1476 1475 1474 1473 1473 1473 1473 1473 1474 1474 1475 1475 1476 1477 1478 1480 1481 1483 1485 1486 1487 1489 1490 1492 1494 1496 1498 1500 1502 1503 1504 1506 1507 1509 1510 1512 1513 1515 1516 1517 1518 1519 1520
1474 1473 1472 1471 1471 1470 1471 1471 1471 1471 1472 1473 1473 1474 1475 1477 1478 1480 1482 1483 1484 1486 1488 1490 1491 1493 1495 1497 1499 1500 1501 1503 1504 1505 1507 1508 1510 1511 1512 1514 1515 1515 1517
1473 1472 1470 1469 1468 1468 1468 1468 1468 1469 1470 1470 1471 1472 1473 1474 1475 1477 1478 1480 1481 1483 1484 1486 1488 1490 1492 1494 1495 1496 1498 1499 1501 1502 1504 1505 1506 1507 1509 1510 1511 1513 1513
1472 1470 1469 1467 1466 1466 1466 1466 1467 1467 1467 1468 1469 1470 1470 1471 1472 1474 1475 1476 1478 1479 1481 1482 1484 1486 1488 1490 1491 1492 1494 1495 1497 1499 1500 1501 1502 1504 1505 1506 1508 1509 1510
1471 1469 1468 1466 1465 1464 1464 1464 1464 1465 1465 1465 1466 1467 1468 1469 1469 1471 1472 1473 1474 1476 1477 1479 1480 1482 1484 1486 1487 1488 1490 1492 1493 1495 1496 1498 1499 1500 1501 1502 1503 1505 1506
1470 1468 1467 1465 1464 1463 1463 1462 1463 1463 1463 1463 1464 1465 1465 1466 1466 1467 1468 1469 1471 1472 1474 1475 1477 1478 1480 1481 1483 1485 1486 1488 1489 1491 1492 1494 1495 1496 1497 1498 1499 1500 1501
1469 1467 1465 1464 1463 1462 1461 1461 1461 1460 1461 1461 1461 1462 1462 1463 1464 1464 1465 1466 1467 1469 1470 1472 1473 1474 1476 1477 1479 1481 1482 1484 1485 1487 1488 1489 1491 1491 1493 1494 1495 1496 1497
1467 1466 1464 1462 1461 1461 1460 1460 1459 1459 1459 1459 1459 1459 1459 1460 1461 1462 1463 1463 1465 1466 1467 1468 1469 1471 1472 1474 1475 1477 1478 1480 1481 1482 1484 1485 1486 1487 1489 1490 1491 1492 1492
1466 1464 1463 1461 1460 1459 1459 1458 1457 1457 1457 1457 1457 1457 1457 1458 1458 1459 1460 1461 1462 1462 1464 1465 1466 1467 1468 1470 1471 1473 1474 1475 1476 1478 1479 1480 1481 1483 1484 1485 1486 1487 1488
1465 1463 1462 1460 1459 1458 1457 1456 1456 1455 1455 1455 1454 1455 1455 1455 1456 1456 1457 1457 1458 1459 1460 1461 1462 1463 1464 1466 1467 1468 1469 1470 1472 1473 1474 1475 1477 1478 1479 1480 1481 1483 1483
1463 1462 1460 1459 1458 1456 1455 1454 1454 1453 1453 1453 1453 1452 1453 1453 1453 1453 1454 1454 1455 1456 1456 1457 1458 1459 1460 1461 1463 1464 1465 1466 1467 1468 1469 1471 1472 1472 1473 1475 1476 1477 1477
1461 1460 1459 1457 1456 1455 1454 1453 1452 1452 1451 1451 1451 1450 1450 1450 1450 1451 1451 1451 1452 1452 1453 1454 1455 1456 1457 1457 1458 1460 1460 1461 1462 1463 1465 1466 1467 1468 1468 1469 1470 1471 1472
1460 1458 1457 1456 1454 1453 1452 1451 1450 1449 1449 1448 1448 1448 1448 1448 1448 1448 1448 1449 1449 1449 1450 1451 1451 1452 1453 1453 1454 1455 1456 1457 1458 1459 1460 1461 1462 1463 1464 1464 1464 1465 1466
1457 1456 1455 1454 1452 1451 1450 1449 1448 1447 1447 1446 1446 1446 1446 1445 1445 1446 1446 1446 1446 1447 1447 1447 1448 1449 1449 1450 1451 1451 1452 1452 1453 1455 1455 1456 1457 1458 1458 1459 1459 1459 1460
1455 1454 1453 1452 1450 1449 1448 1447 1446 1446 1445 1445 1444 1444 1443 1443 1443 1443 1444 1444 1444 1444 1444 1444 1445 1445 1446 1446 1447 1447 1448 1448 1449 1450 1451 1451 1452 1453 1453 1454 1453 1454 1455
1453 1452 1451 1450 1448 1448 1447 1445 1444 1444 1443 1443 1442 1441 1441 1441 1441 1441 1441 1441 1441 1441 1441 1441 1441 1442 1442 1443 1443 1443 1444 1445 1445 1445 1446 1447 1447 1448 1448 1448 1448 1449 1449
1452 1451 1450 1448 1447 1446 1445 1444 1443 1442 1441 1440 1440 1439 1439 1439 1438 1438 1438 1438 1438 1438 1438 1438 1438 1438 1439 1439 1439 1440 1440 1440 1441 1441 1441 1442 1442 1442 1443 1443 1443 1443 1443
1450 1449 1448 1447 1446 1445 1444 1442 1441 1440 1439 1438 1438 1437 1437 1436 1436 1436 1436 1435 1435 1435 1435 1435 1435 1435 1435 1436 1436 1436 1436 1436 1436 1436 1436 1437 1437 1437 1437 1437 1437 1437 1437
1449 1448 1447 1446 1444 1443 1442 1441 1439 1438 1437 1436 1435 1435 1434 1434 1433 1433 1433 1433 1433 1433 1433 1433 1433 1432 1432 1432 1432 1432 1432 1432 1432 1431 1431 1431 1432 1432 1431 1431 1431 1431 1431
1448 1447 1446 1445 1443 1442 1440 1439 1438 1437 1436 1434 1434 1433 1432 1432 1431 1431 1430 1430 1430 1430 1430 1430 1430 1429 1429 1429 1429 1428 1428 1428 1428 1427 1427 1427 1427 1427 1426 1426 1426 1426 1426